Regional Weather Roundup
Issued by NWS

Home | Current Version | Previous Version | Graphics & Text | Print | Product List | Glossary On
Versions: 1 2 3 4 5 6 7 8 9 10 11 12 13 14 15 16 17 18 19 20 21 22 23 24 25 26 27 28 29 30 31 32 33 34 35 36 37 38 39 40 41 42 43 44 45 46 47 48 49 50
000
ASUS43 KFSD 230610
RWRSD

WEATHER ROUNDUP FOR SOUTH DAKOTA
NATIONAL WEATHER SERVICE SIOUX FALLS SD
100 AM CDT SAT JUL 23 2016

NOTE: "FAIR" INDICATES FEW OR NO CLOUDS BELOW 12,000 FEET WITH NO
SIGNIFICANT WEATHER AND/OR OBSTRUCTIONS TO VISIBILITY.


SDZ001>005-009-010-012>017-230700-
NORTHWEST AND NORTH CENTRAL SOUTH DAKOTA

CITY           SKY/WX    TMP DP  RH WIND       PRES   REMARKS
BUFFALO          N/A     71  60  68 E20G28    29.86S
FAITH            N/A     71  58  63 E15       29.95S
MOBRIDGE       CLOUDY    71  61  70 E18G26    29.87F
$$

SDZ012>016-024>037-041>051-057-063-072>074-230700-
SOUTHWEST AND SOUTH CENTRAL SOUTH DAKOTA

CITY           SKY/WX    TMP DP  RH WIND       PRES   REMARKS
RAPID CTY ARPT CLOUDY    73  57  57 SE9       29.95R
PIERRE         CLOUDY    79  69  71 E21G30    29.87F
CUSTER         CLOUDY    66  52  60 VRB6      30.09F
ELLSWORTH AFB  CLOUDY    75  57  54 E12       29.94R
PHILIP         CLOUDY    77  72  84 E15       29.87F
PINE RIDGE     CLOUDY    76  58  53 S18G26    29.91F
WINNER         FAIR      84  76  76 SE12      29.89F
$$

SDZ004>011-016>023-039-040-230700-
NORTHEAST SOUTH DAKOTA

CITY           SKY/WX    TMP DP  RH WIND       PRES   REMARKS
ABERDEEN       CLOUDY    76  68  76 N8        29.96F
WATERTOWN      PTCLDY    79  66  64 E6        29.99R
BROOKINGS      PTCLDY    76  71  85 CALM      29.97R
SISSETON         N/A     72  70  93 E6        29.95F
$$

SDZ017-020-022-023-036>040-048>070-230700-
SOUTHEAST SOUTH DAKOTA

CITY           SKY/WX    TMP DP  RH WIND       PRES   REMARKS
SIOUX FALLS    CLOUDY    81  78  91 E8        29.93F
HURON          CLOUDY    79  75  87 N9        29.93S
CHAMBERLAIN    CLOUDY    83  80  91 NE10      29.90F
MITCHELL       PTCLDY    81  78  91 NE7       29.90F
YANKTON        PTCLDY    81  77  89 E5        29.87F
$$

ABBREVIATIONS USED IN REMARKS
   TC - TEMPERATURE IN CELSIUS
  WCI - WIND CHILL INDEX
   HX - HEAT INDEX
  VSB - VISIBILITY





USA.gov is the U.S. government's official web portal to all federal, state and local government web resources and services.